Location: Street
(51.1247°N, 2.7429°W)
Time: 16:31:12
(UTC+00:00)

SR - Pass Details

Date: 27 November 2020
Orbit: 575 x 880 km, 66.7° (Epoch: 26 January)

Event Time Altitude Azimuth Distance (km) Brightness Sun altitude
Rises 03:12:44 0° 322° (NW) 3,130 - -42.0°
Reaches altitude 10° 03:15:00 10° 323° (NW) 2,253 - -41.7°
Maximum altitude 03:20:12 86° 53° (NE) 795 - -40.9°
Drops below altitude 10° 03:25:50 10° 142° (SE) 2,433 - -40.0°
Exits shadow 03:27:21 - 143° (SE) 3,012 ? -39.8°
Sets 03:28:22 0° 143° (SE) 3,398 ? -39.7°
